Hourly Data Report for October 25, 2015

All times are specified in Local Standard Time (LST). Add 1 hour to adjust for Daylight Saving Time where and when it is observed.

BATHURST A
NEW BRUNSWICK

47°37'47.000" N
65°44'20.000" W
58.80 m
8100505
71574
ZBF

Download Data

Hourly Data (October 2015)
Hourly Data Report for October 25, 2015
Temp Definition
°C
Dew Point Temp Definition
°C
Rel Hum Definition
%
Wind Dir Definition
10's deg

Wind Spd Definition
km/h
Visibility Definition
km
Stn Press Definition
kPa
Hmdx Definition


Wind Chill Definition


Weather Definition


TIME
00:00 Legend Double Dagger 2.7 0.4 85 19 13 24.1 101.44     LegendNANA
01:00 Legend Double Dagger 3.1 0.7 84 18 21 24.1 101.31     LegendNANA
02:00 Legend Double Dagger 3.6 1.2 84 18 17 24.1 101.25     Cloudy
03:00 Legend Double Dagger 4.3 1.7 83 18 20 24.1 101.07     LegendNANA
04:00 Legend Double Dagger 5.1 2.6 84 19 23 24.1 100.96     LegendNANA
05:00 Legend Double Dagger 6.1 3.3 82 20 19 24.1 100.94     Cloudy
06:00 Legend Double Dagger 6.5 3.7 82 19 14 24.1 100.83     LegendNANA
07:00 Legend Double Dagger 6.4 3.9 84 17 16 24.1 100.68     LegendNANA
08:00 Legend Double Dagger 6.8 4.1 83 18 20 24.1 100.57     Cloudy
09:00 Legend Double Dagger 7.5 4.6 82 19 21 24.1 100.47     LegendNANA
10:00 Legend Double Dagger 8.7 4.9 77 20 23 24.1 100.33     LegendNANA
11:00 Legend Double Dagger 9.1 5.9 80 20 22 19.3 100.31     Rain Showers
12:00 Legend Double Dagger 10.1 6.5 78 21 23 24.1 100.21     LegendNANA
13:00 Legend Double Dagger 10.8 7.2 78 20 23 24.1 100.13     LegendNANA
14:00 Legend Double Dagger 11.5 7.6 77 21 19 24.1 100.11     Rain Showers
15:00 Legend Double Dagger 11.6 8.1 79 21 22 24.1 100.07     LegendNANA
16:00 Legend Double Dagger 12.0 8.5 79 21 21 24.1 100.08     LegendNANA
17:00 Legend Double Dagger 11.6 8.7 82 21 13 19.3 100.12     Rain Showers
18:00 Legend Double Dagger 10.5 9.4 93 21 10 11.3 100.18     Drizzle
19:00 Legend Double Dagger 10.2 8.8 91 26 13 12.9 100.28     Rain Showers
20:00 Legend Double Dagger 8.7 5.3 79 29 17 24.1 100.44     Mostly Cloudy
21:00 Legend Double Dagger 8.0 3.5 73 29 17 24.1 100.58     LegendNANA
22:00 Legend Double Dagger 6.6 0.5 65 32 15 24.1 100.71     LegendNANA
23:00 Legend Double Dagger 5.9 0.3 67 30 21 24.1 100.78     Mostly Cloudy

Notes on Data Quality.

Legend

  • E = Estimated
  • M = Missing
  • NA = Not Available
  • ‡ = Partner data that is not subject to review by the National Climate Archives
Date modified: